| time (UTC) | temp F | wind direction | speed knots | gust knots | rain 1hr in | rain 24hr in | rain mn in | humidity % | barometer mb |
| 20260505170016 | 78 | 166 | 1.7 | 14.8 | 0.00 | 0.00 | 0.00 | 42 | 1011.3 |
| 20260505164517 | 78 | 191 | 1.7 | 11.3 | 0.00 | 0.00 | 0.00 | 42 | 1011.5 |
| 20260505163014 | 77 | 191 | 3.5 | 6.1 | 0.00 | 0.00 | 0.00 | 42 | 1011.5 |
| 20260505161512 | 76 | 193 | 3.5 | 9.6 | 0.00 | 0.00 | 0.00 | 45 | 1011.7 |
| 20260505153030 | 75 | 191 | 1.7 | 9.6 | 0.00 | 0.00 | 0.00 | 45 | 1012.1 |
| 20260505151512 | 75 | 149 | 1.7 | 7.8 | 0.00 | 0.00 | 0.00 | 45 | 1012.1 |
| 20260505124512 | 65 | 1 | 7.8 | 13.0 | 0.00 | 0.00 | 0.00 | 57 | 1012.6 |
| 20260505123011 | 64 | 1 | 2.6 | 9.6 | 0.00 | 0.00 | 0.00 | 60 | 1012.5 |
| 20260505121512 | 63 | 1 | 2.6 | 9.6 | 0.00 | 0.00 | 0.00 | 61 | 1012.4 |
| 20260505120014 | 63 | 1 | 2.6 | 7.0 | 0.00 | 0.00 | 0.00 | 62 | 1012.6 |
| 20260505114511 | 62 | 1 | 3.5 | 13.0 | 0.00 | 0.00 | 0.00 | 65 | 1012.5 |
| 20260505113013 | 61 | 1 | 2.6 | 11.3 | 0.00 | 0.00 | 0.00 | 67 | 1012.4 |
| 20260505111514 | 60 | 1 | 3.5 | 10.4 | 0.00 | 0.00 | 0.00 | 68 | 1012.1 |
| 20260505101511 | 60 | 1 | 2.6 | 8.7 | 0.00 | 0.00 | 0.00 | 68 | 1011.9 |
| 20260505100014 | 60 | 1 | 3.5 | 7.0 | 0.00 | 0.00 | 0.00 | 67 | 1011.8 |
| 20260505094511 | 60 | 1 | 3.5 | 7.0 | 0.00 | 0.00 | 0.00 | 68 | 1011.5 |
| 20260505093012 | 60 | 1 | 1.7 | 7.8 | 0.00 | 0.00 | 0.00 | 68 | 1011.5 |
| 20260505091512 | 59 | 1 | 3.5 | 9.6 | 0.00 | 0.00 | 0.00 | 70 | 1011.5 |
| 20260505090014 | 59 | 1 | 2.6 | 6.1 | 0.00 | 0.00 | 0.00 | 70 | 1011.4 |
| 20260505084604 | 59 | 1 | 0.9 | 3.5 | 0.00 | 0.00 | 0.00 | 69 | 1011.6 |
| 20260505083110 | 59 | 1 | 0.9 | 4.3 | 0.00 | 0.00 | 0.00 | 68 | 1011.6 |
| 20260505081600 | 60 | 1 | 1.7 | 4.3 | 0.00 | 0.00 | 0.00 | 68 | 1011.5 |
| 20260505080105 | 60 | 1 | 1.7 | 6.1 | 0.00 | 0.00 | 0.00 | 68 | 1011.5 |
| 20260505074557 | 60 | 1 | 2.6 | 6.1 | 0.00 | 0.00 | 0.00 | 67 | 1011.7 |
| 20260505073106 | 60 | 1 | 1.7 | 6.1 | 0.00 | 0.00 | 0.00 | 67 | 1011.7 |
| 20260505071557 | 60 | 1 | 2.6 | 7.0 | 0.00 | 0.00 | 0.00 | 66 | 1011.5 |
| 20260505070106 | 60 | 1 | 4.3 | 10.4 | 0.00 | 0.00 | 0.00 | 65 | 1011.5 |
| 20260505064644 | 60 | 1 | 2.6 | 12.2 | 0.00 | 0.00 | 0.00 | 65 | 1011.4 |
| 20260505063101 | 60 | 1 | 3.5 | 7.0 | 0.00 | 0.00 | 0.00 | 65 | 1011.4 |
| 20260505061600 | 60 | 1 | 4.3 | 9.6 | 0.00 | 0.00 | 0.00 | 64 | 1011.6 |
| 20260505061501 | 60 | 1 | 3.5 | 9.6 | 0.00 | 0.00 | 0.00 | 64 | 1011.6 |
| 20260505060057 | 61 | 1 | 0.9 | 7.0 | 0.00 | 0.00 | 0.00 | 63 | 1011.4 |
| 20260505054601 | 61 | 1 | 1.7 | 7.8 | 0.00 | 0.00 | 0.00 | 62 | 1011.5 |
| 20260505053058 | 61 | 1 | 1.7 | 6.1 | 0.00 | 0.00 | 0.00 | 61 | 1011.5 |
| 20260505051557 | 61 | 1 | 0.9 | 4.3 | 0.00 | 0.00 | 0.00 | 61 | 1011.6 |
| 20260505041501 | 61 | 1 | 0.9 | 4.3 | 0.00 | 0.00 | 0.00 | 60 | 1011.6 |
| 20260505040006 | 61 | 1 | 0.9 | 3.5 | 0.00 | 0.00 | 0.00 | 58 | 1011.6 |
| 20260505034501 | 62 | 1 | 0.9 | 3.5 | 0.00 | 0.00 | 0.00 | 55 | 1011.6 |
| 20260505033009 | 62 | 1 | 1.7 | 3.5 | 0.00 | 0.00 | 0.00 | 52 | 1011.6 |
| 20260505031501 | 63 | 1 | 1.7 | 5.2 | 0.00 | 0.00 | 0.00 | 50 | 1011.7 |
| 20260505030008 | 63 | 1 | 0.9 | 2.6 | 0.00 | 0.00 | 0.00 | 47 | 1011.7 |
| 20260505024612 | 63 | 1 | 0.9 | 4.3 | 0.00 | 0.00 | 0.00 | 47 | 1011.9 |
| 20260505023100 | 64 | 1 | 1.7 | 4.3 | 0.00 | 0.00 | 0.00 | 46 | 1012.1 |
| 20260505021600 | 64 | 1 | 0.9 | 3.5 | 0.00 | 0.00 | 0.00 | 45 | 1012.0 |
| 20260505020109 | 65 | 1 | 0.9 | 2.6 | 0.00 | 0.00 | 0.00 | 45 | 1012.0 |
| 20260505020002 | 65 | 1 | 0.0 | 2.6 | 0.00 | 0.00 | 0.00 | 45 | 1011.9 |
| 20260505014603 | 65 | 1 | 0.9 | 3.5 | 0.00 | 0.00 | 0.00 | 44 | 1011.9 |
| 20260505014501 | 65 | 1 | 0.0 | 3.5 | 0.00 | 0.00 | 0.00 | 45 | 1011.9 |
| 20260505013100 | 66 | 1 | 0.9 | 2.6 | 0.00 | 0.00 | 0.00 | 44 | 1011.9 |
| 20260505011603 | 66 | 1 | 0.9 | 2.6 | 0.00 | 0.00 | 0.00 | 43 | 1011.7 |
| 20260505010113 | 66 | 1 | 0.0 | 1.7 | 0.00 | 0.00 | 0.00 | 42 | 1011.6 |
| 20260505010002 | 66 | 1 | 0.0 | 1.7 | 0.00 | 0.00 | 0.00 | 42 | 1011.7 |
| 20260505004631 | 67 | 1 | 0.9 | 3.5 | 0.00 | 0.00 | 0.00 | 41 | 1011.3 |
| 20260505003102 | 67 | 1 | 0.9 | 2.6 | 0.00 | 0.00 | 0.00 | 39 | 1011.3 |
| 20260505001605 | 68 | 1 | 0.9 | 7.8 | 0.00 | 0.00 | 0.00 | 39 | 1011.1 |
| 20260505000113 | 68 | 1 | 1.7 | 9.6 | 0.00 | 0.00 | 0.00 | 38 | 1011.1 |
| 20260505000003 | 68 | 1 | 1.7 | 9.6 | 0.00 | 0.00 | 0.00 | 38 | 1011.2 |
| 20260504234600 | 69 | 1 | 0.9 | 7.0 | 0.00 | 0.00 | 0.00 | 37 | 1011.0 |
| 20260504233109 | 69 | 1 | 2.6 | 7.8 | 0.00 | 0.00 | 0.00 | 36 | 1010.9 |
| 20260504231625 | 70 | 1 | 4.3 | 15.6 | 0.00 | 0.00 | 0.00 | 35 | 1010.8 |
| 20260504230100 | 70 | 1 | 2.6 | 11.3 | 0.00 | 0.00 | 0.00 | 35 | 1010.8 |
| 20260504230004 | 70 | 1 | 3.5 | 11.3 | 0.00 | 0.00 | 0.00 | 35 | 1010.8 |
| 20260504224615 | 70 | 1 | 1.7 | 10.4 | 0.00 | 0.00 | 0.00 | 34 | 1010.8 |
| 20260504223101 | 71 | 1 | 3.5 | 10.4 | 0.00 | 0.00 | 0.00 | 34 | 1010.9 |
| 20260504221646 | 71 | 141 | 2.6 | 12.2 | 0.00 | 0.00 | 0.00 | 34 | 1010.9 |
| 20260504220100 | 71 | 182 | 1.7 | 11.3 | 0.00 | 0.00 | 0.00 | 34 | 1011.0 |
| 20260504220002 | 71 | 1 | 3.5 | 11.3 | 0.00 | 0.00 | 0.00 | 34 | 1011.0 |
| 20260504214603 | 71 | 145 | 4.3 | 11.3 | 0.00 | 0.00 | 0.00 | 34 | 1011.1 |
| 20260504213103 | 71 | 241 | 4.3 | 10.4 | 0.00 | 0.00 | 0.00 | 34 | 1011.1 |
| 20260504211600 | 71 | 1 | 4.3 | 10.4 | 0.00 | 0.00 | 0.00 | 31 | 1011.2 |
| 20260504210100 | 72 | 1 | 3.5 | 12.2 | 0.00 | 0.00 | 0.00 | 32 | 1011.1 |
| 20260504210002 | 72 | 1 | 2.6 | 10.4 | 0.00 | 0.00 | 0.00 | 33 | 1011.2 |
| 20260504204559 | 72 | 1 | 6.1 | 16.5 | 0.00 | 0.00 | 0.00 | 31 | 1011.2 |
| 20260504203108 | 72 | 183 | 3.5 | 11.3 | 0.00 | 0.00 | 0.00 | 32 | 1011.2 |
| 20260504201607 | 72 | 1 | 7.8 | 14.8 | 0.00 | 0.00 | 0.00 | 31 | 1011.3 |
| 20260504200006 | 72 | 1 | 3.5 | 13.0 | 0.00 | 0.00 | 0.00 | 31 | 1011.3 |
| 20260504194605 | 72 | 1 | 5.2 | 11.3 | 0.00 | 0.00 | 0.00 | 31 | 1011.4 |
| 20260504193100 | 71 | 1 | 4.3 | 14.8 | 0.00 | 0.00 | 0.00 | 32 | 1011.5 |
| 20260504191623 | 71 | 1 | 3.5 | 13.0 | 0.00 | 0.00 | 0.00 | 32 | 1011.8 |
| 20260504191502 | 71 | 1 | 5.2 | 13.0 | 0.00 | 0.00 | 0.00 | 32 | 1011.8 |
| 20260504190110 | 71 | 1 | 5.2 | 15.6 | 0.00 | 0.00 | 0.00 | 31 | 1012.0 |
| 20260504190002 | 71 | 1 | 6.1 | 15.6 | 0.00 | 0.00 | 0.00 | 32 | 1012.0 |
| 20260504184609 | 70 | 1 | 4.3 | 16.5 | 0.00 | 0.00 | 0.00 | 32 | 1012.1 |
| 20260504183100 | 70 | 1 | 8.7 | 19.1 | 0.00 | 0.00 | 0.00 | 32 | 1012.5 |
| 20260504181606 | 71 | 1 | 5.2 | 10.4 | 0.00 | 0.00 | 0.00 | 32 | 1012.7 |
| 20260504181504 | 71 | 1 | 5.2 | 10.4 | 0.00 | 0.00 | 0.00 | 32 | 1012.7 |
| 20260504180100 | 70 | 1 | 6.1 | 13.0 | 0.00 | 0.00 | 0.00 | 34 | 1012.8 |
| 20260504180003 | 70 | 1 | 5.2 | 13.0 | 0.00 | 0.00 | 0.00 | 33 | 1012.8 |
| 20260504174600 | 69 | 1 | 4.3 | 13.0 | 0.00 | 0.00 | 0.00 | 33 | 1013.1 |
| 20260504173105 | 69 | 1 | 5.2 | 13.0 | 0.00 | 0.00 | 0.00 | 34 | 1013.1 |
| 20260504171604 | 69 | 1 | 5.2 | 17.4 | 0.00 | 0.00 | 0.00 | 35 | 1013.5 |